Weather History for Houston / Southwest Airport, TX

Change the Weather History Date:

Friday, October 25, 2013

  Actual Average (KHOU) Record (KHOU)
Temperature  
Mean Temperature 64 °F 69 °F  
Max Temperature 74 °F 80 °F 91 °F (1950)
Min Temperature 53 °F 59 °F 39 °F (1980)
Degree Days  
Heating Degree Days 2 2  
Month to date heating degree days 15  
Since 1 July heating degree days 16  
Cooling Degree Days 0 6  
Month to date cooling degree days 198  
Year to date cooling degree days 3023  
Growing Degree Days 14 (Base 50)    
Moisture  
Dew Point 56 °F    
Average Humidity 82    
Maximum Humidity 100    
Minimum Humidity 50    
Precipitation  
Precipitation 0.00 in 0.20 in 9.25 in (1984)
Month to date precipitation 4.63  
Year to date precipitation 40.62  
Sea Level Pressure  
Sea Level Pressure 30.28 in    
Wind  
Wind Speed 3 mph (ENE)    
Max Wind Speed 12 mph    
Max Gust Speed 17 mph    
Visibility 9 miles    
Events      
T = Trace of Precipitation, MM = Missing Value Source: NWS Daily Summary

Daily Weather History Graph

Daily Weather History Graph

Search for Another Location

Airport:

Trip Planner

Search our weather history database for the weather conditions in past years. The results will help you decide how hot, cold, wet, or windy it might be!

Date:

Astronomy

Oct. 25, 2013 Rise Set
Actual Time 7:30 AM CDT 6:41 PM CDT
Civil Twilight 7:05 AM CDT 7:05 PM CDT
Nautical Twilight 6:37 AM CDT 7:33 PM CDT
Astronomical Twilight 6:10 AM CDT 8:01 PM CDT
Moon No Moon Rise 1:04 PM CDT (10/25)
Length of Visible Light 11h 59m
Length of Day
11h 10m
Waning Gibbous, 62% of the Moon is Illuminated
Oct 25
Waning Gibbous
Oct 26
Last Quarter
Nov 3
New
Nov 9
First Quarter
Nov 17
Full

Hourly Weather History & Observations

Time (CDT) Temp. Dew Point Humidity Pressure Visibility Wind Dir Wind Speed Gust Speed Precip Events Conditions
12:15 AM 55.4 °F 55.4 °F 100% 30.23 in 3.0 mi Calm Calm - N/A   Clear
12:35 AM 55.4 °F 55.4 °F 100% 30.23 in 10.0 mi Calm Calm - N/A   Clear
12:55 AM 55.2 °F 55.2 °F 100% 30.23 in 10.0 mi Calm Calm - N/A   Clear
1:15 AM 55.6 °F 55.6 °F 100% 30.23 in 10.0 mi Calm Calm - N/A   Clear
1:35 AM 55.6 °F 55.6 °F 100% 30.24 in 10.0 mi Calm Calm - N/A   Clear
1:55 AM 55.6 °F 55.6 °F 100% 30.24 in 10.0 mi Calm Calm - N/A   Clear
2:15 AM 54.5 °F 54.5 °F 100% 30.24 in 7.0 mi Calm Calm - N/A   Clear
2:35 AM 53.4 °F 53.4 °F 100% 30.24 in 1.5 mi Calm Calm - N/A   Mist
2:55 AM 54.7 °F 54.7 °F 100% 30.24 in 10.0 mi Calm Calm - N/A   Clear
3:15 AM 54.5 °F 54.5 °F 100% 30.23 in 10.0 mi Calm Calm - N/A   Clear
3:35 AM 54.7 °F 54.7 °F 100% 30.23 in 10.0 mi Calm Calm - N/A   Clear
3:55 AM 53.6 °F 53.6 °F 100% 30.24 in 10.0 mi Calm Calm - N/A   Clear
4:15 AM 54.5 °F 54.5 °F 100% 30.24 in 10.0 mi Calm Calm - N/A   Clear
4:35 AM 54.0 °F 54.0 °F 100% 30.24 in 10.0 mi Calm Calm - N/A   Clear
4:55 AM 53.8 °F 53.8 °F 100% 30.24 in 10.0 mi Calm Calm - N/A   Clear
5:15 AM 53.8 °F 53.8 °F 100% 30.25 in 5.0 mi Calm Calm - N/A   Clear
5:35 AM 54.1 °F 54.1 °F 100% 30.26 in 4.0 mi Calm Calm - N/A   Clear
5:55 AM 53.4 °F 53.4 °F 100% 30.27 in 7.0 mi Calm Calm - N/A   Clear
6:15 AM 54.5 °F 54.5 °F 100% 30.27 in 10.0 mi Calm Calm - N/A   Clear
6:35 AM 55.2 °F 55.2 °F 100% 30.29 in 7.0 mi Calm Calm - N/A   Clear
6:55 AM 56.7 °F 56.7 °F 100% 30.29 in 10.0 mi North 3.5 mph - N/A   Clear
7:15 AM 57.2 °F 57.0 °F 99% 30.29 in 7.0 mi Calm Calm - N/A   Clear
7:35 AM 57.2 °F 56.7 °F 98% 30.30 in 7.0 mi Calm Calm - N/A   Clear
7:55 AM 57.6 °F 57.0 °F 98% 30.30 in 7.0 mi NNE 4.6 mph - N/A   Clear
8:15 AM 59.0 °F 58.3 °F 97% 30.31 in 7.0 mi NNE 5.8 mph - N/A   Clear
8:35 AM 60.8 °F 59.2 °F 94% 30.31 in 10.0 mi NE 8.1 mph - N/A   Clear
8:55 AM 61.9 °F 59.9 °F 93% 30.32 in 10.0 mi NE 9.2 mph - N/A   Clear
9:15 AM 63.1 °F 60.3 °F 90% 30.33 in 10.0 mi NE 9.2 mph - N/A   Clear
9:35 AM 64.0 °F 59.5 °F 85% 30.34 in 10.0 mi NE 10.4 mph 17.3 mph N/A   Clear
9:55 AM 65.3 °F 58.3 °F 78% 30.34 in 10.0 mi ENE 11.5 mph - N/A   Clear
10:15 AM 65.8 °F 56.5 °F 72% 30.35 in 10.0 mi NE 10.4 mph - N/A   Clear
10:35 AM 67.5 °F 57.2 °F 70% 30.35 in 10.0 mi ENE 10.4 mph - N/A   Clear
10:55 AM 67.8 °F 57.0 °F 68% 30.35 in 10.0 mi ENE 10.4 mph - N/A   Clear
11:15 AM 68.9 °F 57.2 °F 66% 30.35 in 10.0 mi NE 6.9 mph - N/A   Clear
11:35 AM 69.8 °F 57.0 °F 64% 30.35 in 10.0 mi NE 6.9 mph - N/A   Clear
11:55 AM 70.9 °F 56.8 °F 61% 30.34 in 10.0 mi ENE 10.4 mph - N/A   Clear
12:15 PM 70.7 °F 56.7 °F 61% 30.34 in 10.0 mi East 8.1 mph - N/A   Clear
12:35 PM 71.8 °F 56.7 °F 59% 30.33 in 10.0 mi East 9.2 mph - N/A   Clear
12:55 PM 72.7 °F 56.8 °F 57% 30.32 in 10.0 mi NNE 8.1 mph - N/A   Clear
1:15 PM 72.7 °F 56.5 °F 57% 30.32 in 10.0 mi NE 4.6 mph - N/A   Clear
1:35 PM 73.9 °F 56.5 °F 54% 30.30 in 10.0 mi ENE 9.2 mph - N/A   Clear
1:55 PM 74.3 °F 56.5 °F 54% 30.29 in 10.0 mi ENE 4.6 mph - N/A   Clear
2:15 PM 74.1 °F 56.3 °F 54% 30.29 in 10.0 mi ENE 4.6 mph - N/A   Clear
2:35 PM 74.5 °F 56.3 °F 53% 30.28 in 10.0 mi ENE 6.9 mph - N/A   Clear
2:55 PM 74.7 °F 56.1 °F 52% 30.27 in 10.0 mi East 8.1 mph - N/A   Clear
3:15 PM 74.3 °F 55.8 °F 52% 30.27 in 10.0 mi ENE 9.2 mph - N/A   Clear
3:35 PM 74.5 °F 55.6 °F 52% 30.27 in 10.0 mi East 6.9 mph - N/A   Clear
3:55 PM 74.3 °F 55.0 °F 51% 30.27 in 10.0 mi East 6.9 mph - N/A   Clear
4:15 PM 74.8 °F 54.9 °F 50% 30.26 in 10.0 mi East 8.1 mph - N/A   Clear
4:35 PM 74.3 °F 55.2 °F 51% 30.26 in 10.0 mi East 8.1 mph - N/A   Clear
4:55 PM 74.3 °F 55.6 °F 52% 30.26 in 10.0 mi East 8.1 mph - N/A   Clear
5:15 PM 73.4 °F 55.4 °F 53% 30.26 in 10.0 mi ENE 4.6 mph - N/A   Clear
5:35 PM 72.5 °F 55.6 °F 55% 30.25 in 10.0 mi East 5.8 mph - N/A   Clear
5:55 PM 71.6 °F 55.9 °F 58% 30.25 in 10.0 mi East 4.6 mph - N/A   Clear
6:15 PM 70.2 °F 55.9 °F 61% 30.25 in 10.0 mi East 4.6 mph - N/A   Clear
6:35 PM 68.2 °F 56.3 °F 66% 30.25 in 10.0 mi Calm Calm - N/A   Clear
6:55 PM 67.1 °F 56.3 °F 68% 30.26 in 10.0 mi Calm Calm - N/A   Clear
7:15 PM 66.0 °F 56.5 °F 71% 30.26 in 10.0 mi East 3.5 mph - N/A   Clear
7:35 PM 64.6 °F 56.7 °F 75% 30.26 in 10.0 mi East 3.5 mph - N/A   Clear
7:55 PM 64.4 °F 57.2 °F 77% 30.27 in 10.0 mi Calm Calm - N/A   Scattered Clouds
8:15 PM 63.0 °F 56.8 °F 80% 30.27 in 10.0 mi Calm Calm - N/A   Mostly Cloudy
8:35 PM 60.1 °F 56.5 °F 88% 30.28 in 10.0 mi Calm Calm - N/A   Mostly Cloudy
8:55 PM 58.1 °F 56.8 °F 96% 30.28 in 7.0 mi Calm Calm - N/A   Clear
9:15 PM 58.6 °F 57.9 °F 97% 30.29 in 7.0 mi Calm Calm - N/A   Clear
9:35 PM 57.2 °F 57.2 °F 100% 30.29 in 5.0 mi Calm Calm - N/A   Clear
9:55 PM 56.5 °F 56.5 °F 100% 30.29 in 5.0 mi Calm Calm - N/A   Clear
10:15 PM 57.6 °F 57.6 °F 100% 30.29 in 7.0 mi Calm Calm - N/A   Clear
10:35 PM 56.7 °F 56.7 °F 100% 30.29 in 7.0 mi Calm Calm - N/A   Clear
10:55 PM 55.9 °F 55.9 °F 100% 30.29 in 3.0 mi Calm Calm - N/A   Clear
11:15 PM 55.8 °F 55.8 °F 100% 30.28 in 5.0 mi Calm Calm - N/A   Clear
11:35 PM 56.1 °F 56.1 °F 100% 30.27 in 7.0 mi Calm Calm - N/A   Clear
11:55 PM 55.6 °F 55.4 °F 99% 30.27 in 7.0 mi Calm Calm - N/A   Scattered Clouds